This is the latest recevied weather packets stored in our database for station/object AA7VG. If no packets are shown the sender has not sent any weather packets the latest 10 day(s).
| Time | Temp. | Humidity | Pressure | Rain* | Wind** | Luminosity | Snow |
|---|---|---|---|---|---|---|---|
| 1788542890 | 23.89° C | 28% | 1010.3 hPa | 0 mm | - | - | - |
| 1788542589 | 23.89° C | 28% | 1010.2 hPa | 0 mm | - | - | - |
| 1788542284 | 23.89° C | 28% | 1010.1 hPa | 0 mm | - | - | - |
| 1788541979 | 23.33° C | 29% | 1010.2 hPa | 0 mm | - | - | - |
| 1788541675 | 24.44° C | 27% | 1010.3 hPa | 0 mm | - | - | - |
| 1788541371 | 23.89° C | 27% | 1010.2 hPa | 0 mm | - | - | - |
| 1788541070 | 23.89° C | 25% | 1010.2 hPa | 0 mm | - | - | - |
| 1788540770 | 24.44° C | 24% | 1009.9 hPa | 0 mm | - | - | - |
| 1788540464 | 23.33° C | 26% | 1010.1 hPa | 0 mm | - | - | - |
| 1788540160 | 23.33° C | 26% | 1009.7 hPa | 0 mm | - | - | - |
| 1788539856 | 23.89° C | 26% | 1009.7 hPa | 0 mm | - | - | - |
| 1788539551 | 24.44° C | 22% | 1009.3 hPa | 0 mm | - | - | - |
| 1788539250 | 25° C | 22% | 1009.4 hPa | 0 mm | - | - | - |
| 1788538945 | 25° C | 29% | 1009.6 hPa | 0 mm | - | - | - |
| 1788538641 | 25.56° C | 24% | 1009.5 hPa | 0 mm | - | - | - |
| 1788538335 | 24.44° C | 30% | 1009.3 hPa | 0 mm | - | - | - |
| 1788538031 | 25° C | 30% | 1009.1 hPa | 0 mm | - | - | - |
| 1788537727 | 24.44° C | 29% | 1009.1 hPa | 0 mm | - | - | - |
| 1788537427 | 21.67° C | 33% | 1009.4 hPa | 0 mm | - | - | - |
| 1788537126 | 21.67° C | 34% | 1009 hPa | 0 mm | - | - | - |
| 1788536825 | 21.67° C | 33% | 1009.1 hPa | 0 mm | - | - | - |
| 1788536525 | 19.44° C | 36% | 1008.8 hPa | 0 mm | - | - | - |
| 1788536220 | 18.33° C | 39% | 1009.4 hPa | 0 mm | - | - | - |
| 1788535915 | 17.22° C | 43% | 1009.1 hPa | 0 mm | - | - | - |
| 1788535612 | 16.11° C | 45% | 1008.9 hPa | 0 mm | - | - | - |
* Rain latest hour (hover to see other rain measurements)
** Current wind speed in m/s (hover to see current wind gust speed)